GFSSW_850_spd_132.txt.gz
Wind_Speed
15 15 15 14 11 9 7 6 5 5 5 5 6 6 7 8 10 14 14 7 13 5 8 8 11 12 4 3 4 6 4 4 5 3 2 3 12 20 24 34 21 11 32 32 34
14 14 15 13 11 10 7 6 5 5 5 5 5 6 8 9 12 17 8 8 15 11 9 14 14 12 4 5 3 5 2 4 4 6 7 5 21 29 21 19 23 31 35 36 35
13 14 14 13 11 10 8 6 4 4 5 5 5 6 7 8 10 3 0 14 18 11 11 16 11 6 11 5 4 2 2 2 1 4 6 5 4 18 24 7 33 40 38 39 37
13 14 14 13 11 9 8 7 5 4 4 5 5 5 6 4 2 2 6 6 14 14 13 17 15 6 3 8 13 7 14 11 7 9 6 10 9 14 27 25 40 45 42 39 37
12 13 14 12 10 10 9 8 6 5 4 5 5 5 5 4 8 1 7 4 13 14 16 19 16 8 4 11 14 5 13 15 15 26 16 8 5 16 21 31 43 42 43 38 36
11 12 12 10 10 10 10 9 7 5 4 5 4 5 5 4 3 1 7 4 12 14 16 22 10 2 8 3 12 21 15 17 14 13 7 6 5 20 22 32 39 37 38 35 33
10 11 11 9 9 10 11 11 10 7 4 3 4 5 8 12 3 1 4 8 9 14 19 24 16 8 7 5 9 21 10 5 14 11 6 6 6 4 29 25 29 29 37 35 35
9 10 10 8 9 10 10 10 9 9 6 3 2 4 7 1 9 12 6 4 9 10 15 17 12 16 14 2 6 8 8 8 10 13 10 3 5 4 20 24 25 23 35 34 31
9 9 10 9 9 10 11 11 10 8 5 1 1 6 7 7 13 13 10 8 7 8 13 12 10 13 9 3 3 4 3 4 6 4 4 1 7 7 11 25 22 22 31 32 29
9 9 10 10 9 10 12 14 11 10 6 4 7 8 3 7 7 7 12 12 11 9 11 13 7 2 3 3 5 8 7 6 8 4 3 3 2 2 8 19 12 11 36 33 34
10 9 10 9 9 9 10 10 9 3 10 12 14 17 20 10 3 4 17 14 14 10 4 4 3 5 10 7 3 5 2 8 4 6 6 5 7 6 8 8 3 8 26 38 39
12 10 9 9 7 7 6 8 6 7 11 21 20 19 15 11 6 4 13 10 7 6 3 4 5 11 7 3 8 10 2 5 4 5 1 4 4 4 6 5 5 7 31 29 29
13 11 9 8 6 7 6 7 16 27 5 12 8 9 5 11 9 10 12 11 4 2 2 6 11 12 6 8 12 4 7 9 6 8 3 4 3 6 0 4 6 9 28 34 35
13 12 9 6 4 5 7 15 19 20 4 6 2 5 7 4 3 10 17 11 1 9 6 7 15 12 8 10 6 5 3 11 12 9 3 5 3 2 4 5 8 15 19 29 33
15 12 9 5 6 9 13 15 15 1 4 1 3 3 6 7 1 9 20 15 4 4 5 9 5 6 8 11 4 6 16 9 10 5 4 3 4 5 8 13 17 20 24 26 27
17 13 8 7 7 5 11 13 10 5 3 3 5 4 3 4 6 4 15 15 9 4 6 10 16 6 8 9 11 15 17 7 5 3 3 9 3 4 10 28 17 18 25 29 28
17 11 6 7 7 6 14 12 5 4 5 3 3 1 4 3 7 5 5 4 4 1 3 6 6 4 11 11 14 16 10 1 3 3 2 10 3 6 5 16 19 20 21 30 33
11 6 6 7 7 6 14 5 5 4 5 4 5 10 5 5 3 4 2 3 5 4 2 2 7 4 2 10 13 12 8 4 5 4 4 4 5 3 7 14 23 27 27 26 29
7 4 5 6 8 3 5 4 5 5 1 4 6 7 4 4 4 10 4 7 5 8 5 0 5 5 4 4 9 6 6 10 5 2 3 5 1 4 4 8 19 22 28 30 33
6 6 1 9 7 4 4 4 4 4 3 5 4 3 3 1 6 6 4 6 5 5 11 6 3 2 7 3 3 7 5 3 3 3 4 3 4 5 9 11 14 18 28 30 33
5 4 9 9 7 1 2 6 6 14 4 3 5 4 3 4 3 2 4 6 7 10 2 5 4 8 2 3 7 3 2 4 4 4 5 3 4 4 13 6 9 5 12 30 36
4 3 13 13 2 2 2 5 11 11 13 3 3 2 4 8 8 5 2 4 12 10 4 4 5 2 6 8 3 5 3 3 5 6 3 4 4 5 6 9 15 10 5 7 19
8 4 16 17 1 2 6 7 5 5 5 4 4 3 6 1 3 4 4 6 14 4 2 5 4 3 8 7 9 7 3 1 2 2 3 5 4 5 11 12 14 16 8 2 8
4 3 3 22 18 4 5 6 1 6 4 4 3 9 4 5 6 1 2 1 4 5 10 3 5 5 4 5 2 4 6 5 3 2 2 2 4 4 5 3 5 6 2 5 11
1 3 3 3 8 7 3 7 3 3 6 13 7 6 4 4 4 5 5 6 7 12 8 5 4 2 2 2 3 3 7 10 7 5 4 3 5 2 1 2 4 8 4 8 17
2 4 6 11 12 6 1 4 8 3 6 4 11 11 10 6 2 2 3 3 4 5 5 5 1 2 6 6 6 7 16 19 12 12 11 9 6 2 5 2 4 7 9 10 14
3 4 4 8 8 5 3 5 1 7 11 17 15 7 8 5 10 10 6 7 8 0 2 3 3 3 3 6 3 8 7 17 13 12 3 4 2 4 4 5 9 11 16 16 14

GFSSW_850_spd_135.txt.gz
Wind_Speed
14 15 15 12 10 8 6 4 3 4 4 4 5 5 7 8 10 11 12 7 8 8 13 9 10 7 2 4 4 3 3 3 3 4 4 6 8 15 10 24 12 4 27 31 28
14 15 15 13 10 8 6 5 4 4 4 4 5 5 6 9 11 12 7 7 14 10 11 9 11 8 2 3 3 4 3 2 1 3 3 5 18 16 13 17 20 26 24 31 31
13 14 14 12 11 9 7 6 5 4 4 4 5 5 6 7 8 1 2 11 13 13 9 10 11 5 2 4 4 3 1 1 2 2 4 4 17 19 23 11 32 34 34 33 29
12 13 13 12 11 11 10 8 6 5 5 4 5 5 5 4 2 2 3 8 17 13 14 10 9 5 3 3 1 4 8 6 7 1 1 2 3 15 12 11 34 36 38 36 31
11 13 12 11 11 11 11 10 8 6 5 5 5 5 4 4 4 3 5 8 18 18 17 11 12 7 2 6 6 3 8 14 8 8 6 11 5 15 9 25 35 37 35 34 31
10 12 12 11 11 11 12 11 11 8 6 4 4 4 3 3 1 2 6 3 10 14 16 16 12 6 6 8 10 7 9 11 13 10 6 2 8 16 17 34 33 34 36 35 30
10 11 11 10 10 11 12 12 12 11 8 5 3 4 7 4 2 4 2 2 5 13 13 16 12 3 5 6 2 12 6 5 5 14 5 5 5 7 31 35 29 29 34 35 31
10 11 10 9 9 10 11 12 11 11 8 5 4 5 6 4 7 5 4 2 4 11 11 8 13 9 4 8 7 5 3 2 7 12 3 1 3 4 34 34 29 29 29 30 35
10 10 10 9 8 9 10 12 11 8 6 6 4 8 4 3 13 8 9 2 1 7 6 7 5 5 3 4 4 7 2 6 7 7 3 7 4 12 23 26 26 30 31 32 32
11 10 10 10 8 8 10 13 10 5 4 6 7 6 1 10 4 8 11 8 2 2 2 4 4 2 1 4 3 4 4 2 11 3 5 9 5 9 16 18 20 30 28 32 34
12 10 10 10 7 6 8 10 11 4 20 9 14 11 12 10 11 6 13 10 9 2 3 3 4 5 7 5 5 9 4 9 0 7 7 4 6 13 9 18 16 27 30 32 37
13 11 10 10 6 4 7 10 9 10 11 11 8 14 8 5 2 3 13 8 6 4 3 5 4 8 5 5 1 2 7 7 10 8 3 5 4 6 3 2 10 22 27 29 30
13 12 9 9 5 4 6 10 16 19 2 9 5 5 4 5 3 8 13 9 3 5 3 5 6 4 4 1 2 3 2 6 3 11 1 7 2 3 5 7 8 14 30 31 35
14 12 8 6 4 3 3 13 20 7 4 6 2 2 5 5 3 8 10 6 1 7 4 4 6 5 3 5 5 1 10 4 11 4 3 3 5 6 6 10 11 17 23 32 35
15 12 8 4 4 5 7 15 13 2 4 3 3 2 3 3 2 2 11 11 2 3 5 6 3 4 4 7 5 1 6 5 7 3 2 3 2 3 5 11 10 13 27 32 37
16 11 7 5 7 6 10 13 3 5 2 5 4 2 4 5 3 2 9 8 6 4 2 8 12 5 8 8 16 14 8 7 5 3 2 3 2 4 5 15 9 14 19 29 37
14 8 6 6 5 3 10 10 5 4 3 4 1 2 2 3 4 4 3 2 3 2 3 5 4 4 7 10 5 12 6 3 4 2 4 4 2 8 7 9 17 20 25 29 33
8 4 4 5 7 5 9 4 5 3 4 2 3 3 4 5 4 6 3 2 4 3 1 1 5 3 5 14 13 8 7 5 1 3 1 5 5 4 6 12 20 30 36 35 32
6 3 4 7 9 4 3 4 5 4 3 4 2 4 4 1 2 2 2 4 5 8 6 2 4 4 4 6 9 4 4 10 2 3 2 3 6 5 6 5 13 26 32 39 42
5 4 2 8 8 2 4 4 4 6 2 3 3 3 2 3 3 4 4 4 2 6 6 4 2 2 3 6 2 9 8 8 1 3 3 2 3 4 5 4 4 8 25 37 44
4 1 6 9 5 0 2 5 6 13 9 5 3 3 3 4 3 3 4 7 3 6 6 3 3 6 3 3 8 1 1 6 6 3 4 4 6 7 3 7 6 4 11 20 27
4 2 6 10 1 2 2 5 4 9 5 4 4 2 2 3 2 2 3 6 13 5 3 1 4 2 3 5 2 5 3 5 5 4 2 3 4 6 4 10 14 7 13 21 27
9 3 3 14 1 2 5 5 6 2 3 2 3 0 1 4 2 2 2 7 7 7 6 3 3 3 7 6 7 7 5 3 5 3 4 5 4 2 3 7 5 2 9 16 25
4 2 2 11 7 1 3 8 4 4 4 6 3 4 5 4 4 2 4 3 6 10 8 5 2 5 5 4 3 2 5 1 5 4 3 4 2 2 5 5 7 12 7 7 19
2 2 2 3 4 3 4 4 4 2 5 8 8 5 4 2 4 4 3 5 7 15 8 4 3 5 1 5 1 7 6 6 4 2 3 5 4 5 6 6 14 12 11 3 10
2 3 4 6 10 5 5 7 7 3 4 3 8 2 7 4 2 2 4 5 0 6 3 4 1 1 4 9 11 11 11 10 6 7 7 5 6 2 7 16 19 15 15 20 16
2 3 2 5 5 3 3 2 6 9 9 9 10 5 3 3 4 6 5 5 4 1 2 3 2 3 1 2 7 8 6 7 4 6 3 5 3 2 6 13 12 11 12 13 16

GFSSW_850_spd_138.txt.gz
Wind_Speed
13 13 13 11 9 8 6 4 4 4 4 4 5 7 7 7 8 9 10 5 7 8 12 9 10 7 4 4 3 2 3 3 2 4 3 10 5 4 6 18 3 2 19 27 27
13 14 13 11 10 9 8 6 5 4 4 4 5 6 7 7 9 9 4 6 9 8 12 10 12 8 2 2 2 3 3 2 0 1 2 7 10 7 9 9 8 20 20 26 26
13 14 13 12 11 10 9 8 6 5 4 4 5 5 6 7 6 2 1 10 14 11 11 10 11 4 3 1 3 2 3 4 2 4 4 6 12 7 19 2 15 28 31 26 25
12 13 13 11 11 11 11 9 8 6 5 4 4 5 4 3 3 2 1 11 15 14 12 14 9 3 2 2 2 4 8 4 3 4 4 4 1 13 6 4 27 29 30 29 26
11 12 11 10 11 12 12 12 10 8 6 5 4 4 3 3 1 2 2 11 17 14 15 13 9 4 2 2 3 3 8 7 8 5 1 6 2 4 4 9 27 28 28 28 24
11 11 11 10 11 11 12 12 12 11 7 5 4 2 2 2 1 3 7 7 16 13 14 12 6 2 3 1 3 6 6 7 4 4 1 4 2 8 13 19 28 30 30 28 25
10 10 10 10 10 10 11 11 12 11 8 6 4 4 5 3 5 5 7 4 7 11 9 12 7 6 3 3 2 7 4 4 4 6 3 2 2 9 27 26 29 31 29 28 26
10 10 10 9 9 9 11 13 13 9 8 7 5 7 2 5 7 7 4 2 4 8 8 6 11 4 1 8 4 4 3 2 2 5 3 3 2 3 29 29 26 28 28 28 26
11 10 10 9 7 8 11 14 12 7 6 9 6 7 3 1 7 6 4 1 2 8 11 8 7 1 2 4 4 6 3 5 6 6 8 3 2 3 28 29 25 25 27 27 23
12 10 9 9 6 7 12 11 10 4 9 6 6 3 3 6 3 4 6 5 5 10 7 4 3 3 4 4 3 4 4 3 5 6 7 16 10 9 19 23 23 23 25 25 29
12 11 9 9 6 7 10 8 10 3 14 5 10 7 6 5 4 4 9 9 4 3 4 2 5 5 5 5 4 6 5 7 7 3 3 9 6 12 11 15 12 23 24 31 32
13 11 10 9 5 5 8 6 9 9 9 4 5 7 4 0 3 4 10 5 4 2 2 5 5 5 5 5 5 5 5 4 3 8 5 1 7 9 13 16 21 25 27 31 30
14 13 10 8 4 3 4 9 15 16 1 5 4 4 2 3 2 7 14 6 3 3 3 6 3 10 6 4 4 1 4 4 5 9 6 5 5 3 6 9 6 22 30 30 38
15 13 9 6 1 2 2 11 18 6 4 5 3 1 2 2 1 8 14 5 1 7 6 3 2 5 5 3 5 3 8 9 11 14 3 5 3 4 7 12 8 8 31 30 37
16 14 8 3 3 1 4 13 10 1 4 2 2 1 2 2 0 4 13 7 3 3 5 5 3 1 3 6 4 2 11 3 4 3 2 4 1 3 12 10 16 17 28 34 38
18 12 5 5 7 3 6 13 1 5 2 5 1 1 2 5 2 2 4 4 2 4 1 7 4 6 6 6 7 15 8 3 4 2 1 1 4 3 9 16 17 19 24 30 41
15 8 4 6 5 2 8 6 5 5 3 2 0 4 4 5 5 4 4 2 3 2 2 5 5 3 6 8 5 5 6 1 4 3 4 4 3 7 11 15 25 25 27 33 38
9 4 2 5 7 4 8 4 4 1 3 2 1 3 3 3 3 6 3 2 2 3 0 2 1 8 6 8 10 7 8 4 4 3 3 2 4 5 7 12 21 31 29 34 40
7 3 2 4 7 3 4 4 4 3 3 1 2 3 3 2 1 1 1 2 5 7 6 1 4 2 5 5 9 5 4 3 6 1 1 3 6 5 3 1 9 23 34 38 37
5 2 1 4 5 2 4 3 4 5 2 1 3 2 3 3 2 2 1 2 3 7 4 3 2 3 3 9 7 8 8 3 4 3 4 4 4 2 5 3 4 17 25 24 31
4 4 4 8 4 1 2 5 5 10 9 4 5 3 2 1 1 4 1 4 2 3 7 3 3 5 4 1 8 4 1 5 5 5 4 0 4 4 6 1 7 10 17 23 30
3 3 3 5 3 2 0 3 6 4 4 3 4 4 4 5 2 2 2 5 9 3 1 1 4 2 2 6 2 4 6 6 5 6 2 1 3 5 5 7 2 9 15 23 29
5 3 7 8 2 2 5 5 5 3 2 0 2 1 2 4 2 2 3 5 7 2 1 3 2 3 5 7 4 5 2 4 3 3 6 5 3 4 9 12 16 11 6 6 16
3 2 3 5 3 4 3 4 4 1 2 5 3 3 4 3 3 1 4 3 7 7 9 5 3 5 6 6 1 4 5 3 2 4 5 4 3 6 8 8 13 13 9 3 8
3 1 2 2 1 2 2 3 2 2 3 6 6 4 3 3 3 4 3 6 5 9 7 5 4 2 4 2 3 3 4 8 1 2 3 5 5 2 4 4 6 8 12 10 4
3 3 3 2 3 2 3 4 5 2 1 1 6 1 3 4 3 1 2 1 2 6 3 3 2 3 6 7 9 5 9 5 4 3 6 10 4 2 4 11 16 18 17 16 13
2 2 2 3 2 1 3 4 4 7 3 4 8 4 2 4 4 4 4 6 2 1 2 3 4 1 3 2 6 5 7 6 2 3 2 2 3 3 8 13 14 14 13 13 13

GFSSW_850_spd_141.txt.gz
Wind_Speed
12 13 12 11 9 9 7 5 4 3 3 4 5 5 5 5 6 7 6 4 8 9 11 9 10 7 3 2 1 0 2 5 6 9 6 13 6 4 5 16 7 3 14 16 24
12 13 12 11 11 10 9 7 5 4 2 2 4 5 5 5 6 5 3 5 8 10 13 11 12 7 1 1 1 1 3 3 2 4 7 8 14 7 9 9 7 16 15 23 24
12 13 12 11 11 11 10 8 6 4 3 2 3 4 3 4 1 2 2 9 10 13 12 13 11 3 3 1 3 3 3 5 5 6 5 14 9 3 15 3 8 25 25 23 21
11 12 11 11 11 11 11 11 9 6 4 3 3 2 2 1 4 2 2 9 14 14 13 13 9 2 2 2 3 5 7 5 3 6 7 7 2 11 3 2 13 20 25 23 20
10 10 9 9 10 10 10 11 11 9 6 3 2 2 0 1 2 2 1 10 17 12 12 12 7 1 3 3 3 6 6 6 10 6 7 1 5 9 4 8 18 20 20 20 18
9 10 9 8 8 9 10 11 12 11 8 5 2 1 1 2 2 5 6 12 13 12 13 10 4 2 4 4 4 5 8 8 7 7 1 1 3 8 6 13 19 19 18 17 17
9 9 9 7 7 9 10 12 12 10 9 7 5 3 1 2 7 7 10 9 10 9 11 10 8 4 1 5 6 11 7 6 6 5 5 2 0 4 8 13 18 19 17 15 14
9 8 8 7 7 9 11 14 11 7 8 7 5 4 3 6 7 6 7 4 7 9 6 10 8 4 2 8 5 5 5 4 7 7 5 5 2 8 14 15 19 19 18 16 15
10 9 9 8 7 8 12 12 10 3 6 6 5 5 4 3 2 4 2 4 7 10 8 8 8 2 4 3 4 2 5 8 4 6 4 9 3 11 15 19 20 20 18 18 16
11 10 9 8 7 8 11 9 7 3 10 3 6 4 4 2 3 3 6 6 7 14 8 5 3 3 3 4 1 3 5 3 4 3 6 5 5 6 12 21 21 20 18 19 18
11 10 9 8 5 5 9 7 7 3 6 3 5 3 2 1 2 5 12 11 10 3 3 2 6 10 8 5 4 7 7 6 3 2 2 4 2 7 15 18 16 19 21 22 19
12 10 10 7 3 3 7 6 8 6 6 4 3 3 1 5 4 7 13 5 3 5 5 5 11 4 4 7 7 6 7 4 2 1 3 1 2 6 9 14 12 17 22 22 18
12 11 9 5 2 3 3 8 14 13 2 3 3 2 2 4 3 10 15 7 4 4 4 6 1 9 7 7 6 5 3 5 2 5 2 2 3 5 8 13 23 21 22 22 24
13 12 7 3 5 1 1 10 15 5 1 4 1 1 2 1 3 10 14 4 2 5 6 2 4 7 6 6 7 5 2 4 10 9 3 8 1 5 11 14 18 19 22 27 25
14 12 5 5 3 1 2 11 10 3 2 3 0 1 1 1 2 5 13 3 4 5 4 4 6 8 8 7 10 4 7 10 5 6 4 6 3 3 9 10 19 22 22 25 26
16 7 3 5 5 2 4 11 4 2 3 1 1 1 1 5 3 2 4 3 3 3 1 4 0 3 2 4 9 18 10 8 5 2 4 2 6 4 10 18 23 25 22 25 26
11 4 2 5 4 3 5 5 1 2 1 2 1 2 3 3 2 2 5 6 4 3 3 1 8 3 7 11 12 8 6 2 1 3 2 1 4 8 13 14 26 31 36 26 25
6 2 3 5 6 3 6 1 2 0 1 1 2 2 1 2 2 2 5 5 5 3 2 3 5 11 10 12 9 15 9 4 4 3 2 4 5 1 8 11 20 28 33 21 24
3 3 4 6 7 2 3 1 1 2 0 1 2 1 1 1 1 1 1 2 3 10 5 3 1 5 14 5 9 7 9 3 4 1 3 2 3 0 1 5 8 19 26 28 28
2 5 4 7 6 1 1 1 2 3 2 2 2 0 1 1 1 2 0 2 1 8 5 1 2 3 6 8 7 8 12 5 1 4 2 1 2 3 9 7 5 15 27 24 29
3 4 4 9 4 2 1 2 4 6 6 3 2 3 2 0 1 1 2 1 1 1 7 5 3 3 6 6 9 9 5 2 2 2 2 2 1 6 10 9 6 14 22 23 24
2 2 7 6 1 1 1 2 4 4 1 2 2 1 2 3 1 1 2 3 4 2 2 3 2 2 3 2 2 1 7 6 4 6 2 3 2 5 6 7 8 5 10 15 20
3 3 7 3 2 1 2 3 3 2 2 1 1 0 1 2 0 1 2 2 6 2 2 5 0 5 7 5 3 2 1 3 1 0 7 5 3 3 5 6 9 6 2 6 16
1 2 2 2 2 1 1 2 2 2 1 2 2 2 2 2 1 1 2 2 5 3 4 4 3 4 5 5 3 1 3 2 5 4 5 4 7 1 4 7 10 10 5 1 4
3 1 2 3 3 2 1 2 2 1 0 2 3 2 3 2 1 2 2 4 2 7 2 2 6 7 9 13 13 2 5 5 6 2 4 8 7 3 4 5 7 9 8 8 6
2 1 1 2 2 2 2 3 4 3 2 1 3 3 2 4 3 1 2 2 1 4 2 3 3 2 4 6 11 6 10 6 6 6 8 11 7 3 2 3 8 10 11 15 12
2 2 1 1 3 3 4 3 4 7 1 1 7 3 3 2 2 2 3 2 2 2 3 3 3 1 2 2 2 4 5 9 6 3 6 5 5 5 4 7 8 8 10 12 15

GFSSW_850_spd_144.txt.gz
Wind_Speed
12 12 11 11 10 8 7 5 4 3 4 4 3 3 3 3 4 4 4 6 9 9 9 8 7 5 3 3 2 2 4 4 8 10 9 12 12 7 9 15 7 4 18 23 23
11 11 10 10 10 10 8 7 5 3 2 3 3 2 2 2 3 3 5 6 9 11 10 10 9 6 3 4 2 3 2 2 3 6 10 11 9 10 11 11 9 16 19 24 22
10 10 10 10 11 11 10 8 6 5 3 2 2 2 0 0 3 3 2 8 11 13 9 8 7 4 4 4 1 3 3 6 7 8 4 12 9 7 10 5 13 21 26 24 21
10 10 9 10 10 10 10 10 9 6 4 3 2 1 1 4 2 1 1 9 11 14 9 9 7 5 5 5 4 9 7 5 5 5 5 8 5 11 7 6 16 19 22 23 20
9 9 8 8 9 9 10 11 11 8 5 3 1 1 2 2 3 1 2 9 13 12 9 10 6 2 3 9 14 14 7 7 5 8 8 4 4 7 8 15 18 19 18 20 18
9 9 8 7 7 8 10 11 10 8 6 4 3 2 2 5 1 3 5 14 10 7 8 8 3 2 5 2 3 12 11 12 6 2 6 3 3 7 8 18 19 18 16 16 16
8 8 8 7 7 8 10 12 9 6 7 6 5 4 2 4 5 8 9 10 9 7 9 6 2 2 2 9 14 19 13 13 9 8 1 8 5 6 9 17 18 16 14 14 15
9 8 8 7 7 8 11 12 8 4 6 4 4 8 5 7 8 9 8 7 9 5 6 6 3 2 3 10 8 7 6 6 6 4 7 5 1 3 2 12 16 16 15 14 13
9 8 8 7 6 8 11 10 7 4 6 5 6 5 9 6 4 7 4 3 9 6 4 7 5 2 7 9 8 7 4 7 5 6 5 2 3 5 4 6 15 17 16 15 14
10 9 8 7 4 6 11 6 4 4 4 5 5 4 5 6 5 6 5 7 7 10 7 9 10 9 8 8 5 2 6 3 6 8 2 5 6 6 4 10 14 18 17 16 15
10 9 8 6 2 4 10 6 3 2 4 4 4 4 7 4 5 6 8 8 10 10 9 14 11 13 11 1 3 3 5 6 7 7 4 4 1 2 9 11 17 17 20 19 16
10 9 7 4 2 2 6 5 6 3 1 3 2 1 4 6 7 9 11 7 8 9 6 8 14 9 2 5 5 4 4 7 6 4 4 6 8 8 9 8 18 18 19 19 16
11 8 6 1 4 2 3 5 12 4 3 4 1 1 3 5 4 12 13 5 7 6 11 11 6 7 9 9 8 7 6 3 3 8 4 4 5 9 12 14 18 16 17 18 19
12 9 4 2 5 1 0 9 11 2 4 6 6 4 4 3 5 9 9 3 6 7 7 7 4 12 9 10 10 9 3 4 5 7 3 7 1 10 7 12 20 23 20 20 22
12 9 2 9 6 2 3 9 7 2 1 3 6 2 2 5 8 9 10 5 4 8 8 7 11 9 13 12 9 2 4 2 7 7 3 8 3 2 9 8 18 24 27 23 25
13 4 4 9 6 4 3 9 5 6 4 5 3 4 6 2 3 8 10 7 1 3 7 4 1 7 8 7 12 8 9 7 7 7 8 5 7 6 10 16 14 26 28 27 26
8 2 6 10 6 6 2 3 6 2 3 5 3 3 1 2 6 7 10 11 7 8 10 11 14 11 8 11 12 16 14 9 8 5 7 5 6 3 6 11 24 28 33 28 26
4 2 6 10 9 6 2 5 2 3 2 3 2 3 3 2 4 6 6 8 6 7 3 7 12 17 13 16 10 18 17 10 7 6 3 5 4 3 4 5 17 27 25 27 23
1 3 5 9 9 5 8 5 2 2 2 1 6 6 5 5 5 6 5 5 1 9 5 4 4 6 15 15 15 17 13 9 12 6 7 5 5 6 1 6 3 18 23 25 25
4 4 3 8 9 5 7 3 2 2 4 3 2 2 2 2 5 6 4 3 3 5 9 3 4 6 14 7 10 14 10 8 8 4 8 6 1 4 6 7 4 9 23 24 27
6 5 4 8 6 7 5 3 1 0 3 3 2 2 2 3 4 4 3 6 1 2 7 9 7 8 7 13 14 9 11 11 2 8 3 2 4 7 7 9 7 4 14 20 25
3 4 8 7 6 2 4 1 1 1 4 2 2 3 3 2 4 4 1 4 5 5 3 3 6 6 9 3 7 11 11 15 6 2 2 4 6 7 5 8 9 2 14 19 12
1 1 8 4 5 7 4 3 3 4 3 3 1 3 0 2 3 3 1 3 5 3 6 4 6 8 9 8 6 9 6 11 9 14 5 3 5 4 4 3 5 4 4 10 12
2 5 5 6 4 5 3 4 6 3 2 1 1 3 5 2 1 1 2 2 2 5 1 3 5 10 4 9 7 5 5 12 13 9 9 6 6 12 4 4 9 8 2 5 8
3 1 3 7 9 7 4 1 7 7 4 5 4 4 3 2 2 1 3 4 5 2 3 3 2 2 9 8 4 5 6 7 13 16 5 7 7 6 5 2 7 7 5 5 5
3 4 3 3 3 8 6 8 11 7 5 8 4 5 4 3 2 4 5 2 3 1 3 5 3 6 8 8 5 8 8 11 5 4 3 7 8 6 4 5 7 8 9 10 9
4 4 3 7 8 8 8 7 7 9 5 3 4 6 7 2 2 4 5 5 4 4 2 3 4 7 5 7 9 3 4 11 2 5 7 9 8 12 6 7 8 6 10 11 13